[[{"header":{"parameterUnit":"m.s-1","parameterCategory":1,"la1":30.2991,"la2":30.254,"lo1":-89.0895,"lo2":-89.0444,"dy":0.0017,"dx":0.0017,"nx":28,"ny":28,"refTime":"2025-11-10T09:00:00:Z","depth":0,"parameterNumber":2,"parameterNumberName":"U-component_of_WINDS"},"data":[0,0,0,0,0,0,0,0,0,0,0,0,0,0,0,0,0,0,0,0,0,0,0,0,0,0,0,0,0,0,0,0,0,0,0,0,0,0,0,0,0,0,0,0,0,0,0,0,0,0,0,0,0,0,0,0,0,0,-2.9225,-2.9227,0,-2.9328,-2.9329,-2.933,-2.9294,-2.9292,-2.929,-2.9288,-2.9391,-2.9395,-2.94,0,0,0,0,0,0,0,0,0,0,0,0,0,-2.8995,-2.8999,-2.9225,-2.9227,-2.9228,-2.9328,-2.9329,-2.933,-2.9295,-2.9292,-2.9289,-2.9287,-2.9389,-2.9395,-2.9401,0,0,0,0,0,0,0,0,0,0,0,0,0,-2.9096,-2.9001,-2.9225,-2.9222,-2.9223,-2.9327,-2.9329,-2.9331,-2.9295,-2.9292,-2.9289,-2.9285,-2.9387,-2.9394,-2.9401,-2.9514,0,0,-2.9424,-2.9427,0,0,0,0,0,0,0,0,-2.909,-2.9104,-2.9221,-2.9223,-2.9224,-2.9295,-2.9285,-2.9392,-2.9296,-2.9268,-2.9288,-2.9284,-2.9361,-2.9371,-2.9397,-2.9519,-2.9523,-2.9424,-2.9429,-2.9432,-2.9434,0,0,0,0,0,0,0,-2.9083,-2.91,-2.9266,-2.9223,-2.9224,-2.9214,-2.9225,-2.9306,-2.9332,-2.927,-2.9268,-2.928,-2.9361,-2.939,-2.9399,-2.9525,-2.9424,-2.9431,-2.9435,-2.9438,-2.974,-2.9744,0,0,0,0,0,0,-2.9076,-2.9094,-2.9263,-2.9269,-2.9147,-2.9221,-2.9233,-2.9275,-2.9331,-2.9337,-2.9283,-2.9278,-2.938,-2.9391,-2.9403,-2.9536,-2.9432,-2.9439,-2.9443,-2.9736,-2.9741,-2.9745,0,0,0,0,0,0,-2.9071,-2.9091,-2.9258,-2.9181,-2.9201,-2.9229,-2.9277,-2.9279,-2.9308,-2.9341,-2.9346,-2.9308,-2.9377,-2.9393,-2.9486,-2.9539,-2.9442,-2.9448,-2.9732,-2.9738,-2.9743,-2.9804,0,0,0,0,0,0,-2.9065,-2.909,-2.9134,-2.9182,-2.9206,-2.9341,-2.928,-2.9284,-2.9321,-2.9316,-2.9366,-2.9371,-2.9376,-2.9475,-2.9493,-2.9547,-2.9454,-2.9727,-2.9735,-2.9741,-2.9797,-2.9811,-2.9822,0,0,0,0,0,-2.9057,-2.9148,-2.9137,-2.9157,-2.9262,-2.9345,-2.9358,-2.9362,-2.9326,-2.9369,-2.939,-2.9369,-2.953,-2.9485,-2.9505,-2.9562,-2.9724,-2.9733,-2.9741,-2.9792,-2.9808,-2.9822,0,0,0,0,0,0,-2.9106,-2.9154,-2.9142,-2.9252,-2.9294,-2.9338,-2.9394,-2.938,-2.9434,-2.9426,-2.9429,-2.944,-2.9536,-2.9558,-2.9507,-2.9672,-2.9622,-2.9634,-2.9653,-2.9669,-2.9682,-2.9673,-2.946,0,0,0,0,0,-2.9129,-2.9193,-2.9232,-2.9325,-2.9347,-2.9367,-2.9403,-2.9402,-2.9446,-2.9464,-2.9492,-2.9534,-2.9593,-2.9633,-2.969,-2.9801,-2.9809,-2.9849,-2.9862,-2.9872,-2.9882,-2.9938,-2.9955,-2.9772,-2.9772,-2.9772,0,0,-2.9178,-2.9213,-2.9253,-2.9335,-2.9368,-2.9432,-2.9382,-2.9453,-2.95,-2.9474,-2.9563,-2.9585,-2.9633,-2.9734,-2.978,-2.9756,-2.9935,-2.9882,-2.989,-2.9895,-2.9949,-2.9966,-2.9981,-2.9778,-2.9777,-2.9776,0,0,-2.93,-2.9334,-2.9414,-2.9447,-2.9497,-2.9509,-2.9528,-2.9574,-2.9587,-2.9677,-2.9658,-2.9713,-2.9817,-2.9851,-2.9881,-3.0013,-2.9994,-3.0032,-3.0096,-3.0151,-3.0166,-3.0178,-3.0222,-3.0238,-3.0042,-3.0042,-3.0042,0,-2.9355,-2.9452,-2.9456,-2.9528,-2.9563,-2.9543,-2.9621,-2.9653,-2.972,-2.9743,-2.9716,-2.9843,-2.9874,-2.9981,-3.0013,-3.0039,-3.0059,-3.0025,-3.0164,-3.0176,-3.0188,-3.023,-3.0247,-3.0046,-3.0046,-3.0045,-3.0045,0,-2.9515,-2.9583,-2.9641,-2.9704,-2.9746,-2.9822,-2.9835,-2.9877,-2.9872,-2.9886,-2.9976,-3.0012,-3.0074,-3.01,-3.0097,-3.0206,-3.0189,-3.0163,-3.0111,-3.021,-3.0248,-3.0265,-3.0052,-3.005,-3.0049,-3.0048,0,0,-2.9672,-2.9734,-2.9755,-2.9782,-2.9835,-2.9886,-2.9959,-3.002,-3.0055,-3.0101,-3.016,-3.0247,-3.0222,-3.0257,-3.0257,-3.0305,-3.0403,-3.0272,-3.0273,-3.0293,-3.0521,-3.0538,-3.0557,-3.0391,-3.0395,-3.0397,-3.0516,0,-2.9795,-2.9924,-2.9928,-3.0045,-3.0105,-3.0085,-3.0148,-3.0186,-3.0201,-3.0254,-3.027,-3.0331,-3.0295,-3.0315,-3.0362,-3.0381,-3.0448,-3.0373,-3.0444,-3.0446,-3.043,-3.0578,-3.0598,-3.0708,-3.0531,-3.0534,-3.0536,0,-2.9958,-3.0007,-3.013,-3.0171,-3.0196,-3.0253,-3.0307,-3.0359,-3.04,-3.0407,-3.0445,-3.0437,-3.0509,-3.0457,-3.0554,-3.0503,-3.0532,-3.0545,-3.055,-3.0555,-3.0496,-3.0584,-3.0744,-3.0759,-3.0561,-3.0559,-3.0557,0,-3.0055,-3.0153,-3.0238,-3.0262,-3.0313,-3.0352,-3.0375,-3.0413,-3.0449,-3.0496,-3.0518,-3.0574,-3.0603,-3.0645,-3.0651,-3.0613,-3.0748,-3.0697,-3.0754,-3.0753,-3.0781,-3.0779,-3.0945,-3.0805,-3.0805,-3.0804,-3.0804,0,-3.0192,-3.0267,-3.0282,-3.0334,-3.0417,-3.042,-3.0501,-3.052,-3.0554,-3.0608,-3.0595,-3.0645,-3.0651,-3.0703,-3.0708,-3.0786,-3.0801,-3.0806,-3.0806,-3.0806,-3.0805,-3.0824,-3.0815,-3.0809,-3.0808,-3.0807,-3.0806,0,-3.0314,-3.0328,-3.0419,-3.0458,-3.047,-3.0529,-3.0562,-3.061,-3.0623,-3.0692,-3.0708,-3.0728,-3.0788,-3.0798,-3.0869,-3.0872,-3.0964,-3.0958,-3.095,-3.0949,-3.1003,-3.0997,-3.1185,-3.1208,-3.1056,-3.1057,-3.1058,0,-3.0399,-3.0456,-3.0501,-3.0536,-3.0561,-3.0618,-3.0654,-3.0658,-3.0695,-3.0745,-3.0787,-3.0846,-3.0892,-3.0988,-3.1008,-3.1061,-3.1054,-3.1117,-3.1062,-3.1059,-3.1051,-3.1047,-3.1051,-3.1126,-3.1128,-3.1129,-3.1131,0,-3.0547,-3.0551,-3.0603,-3.0656,-3.0699,-3.0742,-3.0782,-3.0811,-3.0821,-3.0863,-3.0923,-3.096,-3.1031,-3.1088,-3.114,-3.1162,-3.1147,-3.1148,-3.1163,-3.1162,-3.1154,-3.1156,-3.0976,-3.1143,-3.1142,-3.1141,-3.114,-3.114,-3.0652,-3.07,-3.0738,-3.0796,-3.0826,-3.0864,-3.091,-3.0928,-3.0979,-3.1038,-3.1037,-3.1103,-3.114,-3.1209,-3.1233,-3.1283,-3.1263,-3.1286,-3.1292,-3.1296,-3.13,-3.1148,-3.1293,-3.1293,-3.1293,-3.1292,-3.1292,0,-3.0796,-3.082,-3.0873,-3.0928,-3.0973,-3.0956,-3.0999,-3.1036,-3.1095,-3.1131,-3.1176,-3.1244,-3.1299,-3.1323,-3.1376,-3.1411,-3.1405,-3.1424,-3.142,-3.1425,-3.1317,-3.1297,-3.1428,-3.1428,-3.1428,-3.1428,-3.1428,-3.1428,-3.0877,-3.0956,-3.0964,-3.1057,-3.108,-3.1144,-3.117,-3.1203,-3.1231,-3.1308,-3.1353,-3.1368,-3.1398,-3.1453,-3.1501,-3.1506,-3.1525,-3.1547,-3.1549,-3.1447,-3.1433,-3.142,-3.1401,-3.1552,-3.1552,-3.1652,-3.1653,-3.1654]},{"header":{"parameterUnit":"m.s-1","parameterCategory":1,"la1":30.2991,"la2":30.254,"lo1":-89.0895,"lo2":-89.0444,"dy":0.0017,"dx":0.0017,"nx":28,"ny":28,"refTime":"2025-11-10T09:00:00:Z","depth":0,"parameterNumber":3,"parameterNumberName":"V-component_of_WINDS"},"data":[0,0,0,0,0,0,0,0,0,0,0,0,0,0,0,0,0,0,0,0,0,0,0,0,0,0,0,0,0,0,0,0,0,0,0,0,0,0,0,0,0,0,0,0,0,0,0,0,0,0,0,0,0,0,0,0,0,0,-5.6841,-5.6842,0,-5.6931,-5.6932,-5.6933,-5.6832,-5.6828,-5.6824,-5.682,-5.6908,-5.6914,-5.692,0,0,0,0,0,0,0,0,0,0,0,0,0,-5.6574,-5.658,-5.6841,-5.6842,-5.6843,-5.6931,-5.6932,-5.6934,-5.6832,-5.6828,-5.6823,-5.6819,-5.6906,-5.6913,-5.692,0,0,0,0,0,0,0,0,0,0,0,0,0,-5.668,-5.6582,-5.6841,-5.6804,-5.6801,-5.6931,-5.6933,-5.6934,-5.6833,-5.6828,-5.6822,-5.6816,-5.6904,-5.6912,-5.6921,-5.7091,0,0,-5.6948,-5.6952,0,0,0,0,0,0,0,0,-5.6674,-5.669,-5.6808,-5.6806,-5.6804,-5.6864,-5.687,-5.6986,-5.6835,-5.6821,-5.682,-5.6814,-5.6898,-5.6907,-5.6936,-5.7095,-5.7099,-5.6949,-5.6954,-5.6958,-5.6961,0,0,0,0,0,0,0,-5.6667,-5.6685,-5.6877,-5.681,-5.6807,-5.678,-5.6789,-5.6892,-5.689,-5.6822,-5.6815,-5.6827,-5.6896,-5.6928,-5.6937,-5.71,-5.6949,-5.6957,-5.6962,-5.6965,-5.7398,-5.7404,0,0,0,0,0,0,-5.6665,-5.668,-5.6874,-5.6879,-5.6724,-5.679,-5.6799,-5.6851,-5.6889,-5.6889,-5.6832,-5.6822,-5.6916,-5.6927,-5.694,-5.7139,-5.6958,-5.6966,-5.6971,-5.7392,-5.74,-5.7407,0,0,0,0,0,0,-5.6659,-5.6683,-5.687,-5.6778,-5.68,-5.68,-5.6859,-5.6856,-5.6888,-5.6897,-5.6895,-5.6866,-5.6912,-5.6928,-5.7054,-5.7141,-5.697,-5.6978,-5.7385,-5.7395,-5.7403,-5.754,0,0,0,0,0,0,-5.6652,-5.6682,-5.6748,-5.678,-5.6805,-5.6985,-5.6864,-5.6861,-5.6904,-5.6892,-5.6928,-5.6928,-5.6908,-5.7041,-5.7062,-5.715,-5.6985,-5.7377,-5.7389,-5.74,-5.7528,-5.7553,-5.7575,0,0,0,0,0,-5.6643,-5.6783,-5.6752,-5.6776,-5.6888,-5.699,-5.7004,-5.6979,-5.6912,-5.6977,-5.6982,-5.6927,-5.7128,-5.7055,-5.7078,-5.717,-5.7372,-5.7386,-5.7399,-5.7517,-5.7548,-5.7574,0,0,0,0,0,0,-5.6759,-5.6786,-5.6752,-5.6907,-5.6947,-5.6973,-5.7054,-5.7013,-5.7072,-5.7058,-5.7023,-5.7032,-5.7166,-5.718,-5.7098,-5.7334,-5.7238,-5.7258,-5.732,-5.7349,-5.7372,-5.7365,-5.6993,0,0,0,0,0,-5.6803,-5.6886,-5.6904,-5.7038,-5.706,-5.7054,-5.7098,-5.7075,-5.7115,-5.7131,-5.7145,-5.7184,-5.7255,-5.7303,-5.7369,-5.7529,-5.7534,-5.7603,-5.7627,-5.7646,-5.7663,-5.7746,-5.7776,-5.7452,-5.7452,-5.7452,0,0,-5.6894,-5.6919,-5.6973,-5.7062,-5.7091,-5.7174,-5.7069,-5.7163,-5.7224,-5.7144,-5.7264,-5.7276,-5.7316,-5.746,-5.7523,-5.7476,-5.7753,-5.7664,-5.7679,-5.7685,-5.7763,-5.7794,-5.7821,-5.7462,-5.746,-5.7459,0,0,-5.7103,-5.7131,-5.7245,-5.7276,-5.732,-5.7315,-5.7342,-5.7374,-5.7379,-5.7499,-5.744,-5.7511,-5.7636,-5.7667,-5.7699,-5.7917,-5.7868,-5.7939,-5.8061,-5.8142,-5.8167,-5.819,-5.8266,-5.8293,-5.7956,-5.7956,-5.7956,0,-5.721,-5.7336,-5.7308,-5.7406,-5.7446,-5.7379,-5.7492,-5.7522,-5.7586,-5.7614,-5.756,-5.7713,-5.7736,-5.7884,-5.7937,-5.7966,-5.7994,-5.7935,-5.8166,-5.8188,-5.8209,-5.8281,-5.831,-5.7965,-5.7964,-5.7963,-5.7962,0,-5.7464,-5.7552,-5.7638,-5.7702,-5.7752,-5.7857,-5.7843,-5.7896,-5.7868,-5.7868,-5.7989,-5.8014,-5.8083,-5.8117,-5.8091,-5.8261,-5.823,-5.8172,-5.8075,-5.8249,-5.8315,-5.8343,-5.7976,-5.7973,-5.7971,-5.7969,0,0,-5.7749,-5.7796,-5.7828,-5.7855,-5.7898,-5.7965,-5.8065,-5.8134,-5.8179,-5.8225,-5.8306,-5.8413,-5.8359,-5.8395,-5.8372,-5.8443,-5.8611,-5.8376,-5.8376,-5.8417,-5.8797,-5.884,-5.8872,-5.8579,-5.8585,-5.8589,-5.8793,0,-5.7957,-5.8134,-5.8111,-5.8279,-5.8358,-5.8294,-5.8381,-5.8416,-5.8418,-5.8484,-5.8485,-5.856,-5.8484,-5.8505,-5.8573,-5.8577,-5.8687,-5.8562,-5.8653,-5.8657,-5.8644,-5.8908,-5.8953,-5.9145,-5.8819,-5.8824,-5.8827,0,-5.8224,-5.8279,-5.8456,-5.8485,-5.8517,-5.8596,-5.8656,-5.8721,-5.8757,-5.8753,-5.8794,-5.8757,-5.8855,-5.8757,-5.889,-5.8805,-5.8841,-5.8848,-5.8855,-5.8861,-5.8752,-5.892,-5.9206,-5.9235,-5.8868,-5.8865,-5.8862,0,-5.8411,-5.8531,-5.8651,-5.8676,-5.8714,-5.877,-5.8788,-5.882,-5.8862,-5.8913,-5.894,-5.9002,-5.9036,-5.9084,-5.9064,-5.8994,-5.92,-5.91,-5.9197,-5.9198,-5.9243,-5.924,-5.9538,-5.9268,-5.9268,-5.9267,-5.9267,0,-5.8645,-5.8755,-5.8736,-5.881,-5.893,-5.8901,-5.902,-5.903,-5.9058,-5.9131,-5.9079,-5.9148,-5.9118,-5.9185,-5.9169,-5.9281,-5.9297,-5.9294,-5.9289,-5.9299,-5.9299,-5.9321,-5.9306,-5.9275,-5.9273,-5.9272,-5.9271,0,-5.8875,-5.8867,-5.8994,-5.9019,-5.9027,-5.9115,-5.9135,-5.9203,-5.92,-5.9293,-5.9313,-5.9308,-5.9383,-5.9368,-5.9451,-5.944,-5.9579,-5.9558,-5.9568,-5.9562,-5.9659,-5.965,-5.998,-6.0021,-5.9727,-5.973,-5.9732,0,-5.9025,-5.9108,-5.9142,-5.9187,-5.921,-5.9284,-5.9326,-5.9301,-5.9347,-5.9394,-5.9456,-5.9526,-5.9582,-5.9704,-5.9707,-5.9769,-5.9748,-5.9859,-5.9757,-5.9763,-5.9747,-5.9742,-5.9749,-5.9879,-5.9883,-5.9885,-5.9888,0,-5.929,-5.9281,-5.9346,-5.9409,-5.9461,-5.9509,-5.9551,-5.9591,-5.9568,-5.9622,-5.9699,-5.9742,-5.9826,-5.9896,-5.9954,-5.9969,-5.9925,-5.992,-5.9945,-5.9956,-5.9957,-5.9956,-5.9621,-5.9912,-5.991,-5.9908,-5.9907,-5.9906,-5.9483,-5.9553,-5.9587,-5.966,-5.9689,-5.973,-5.9795,-5.98,-5.9864,-5.9931,-5.9912,-5.9998,-6.003,-6.0103,-6.0125,-6.0191,-6.0149,-6.0186,-6.0195,-6.0205,-6.0216,-5.9948,-6.0201,-6.0201,-6.02,-6.0199,-6.0199,0,-5.9744,-5.9762,-5.983,-5.9891,-5.9948,-5.9902,-5.9946,-5.9995,-6.0073,-6.0107,-6.0163,-6.025,-6.0317,-6.0325,-6.0388,-6.0439,-6.0419,-6.0456,-6.0451,-6.0455,-6.0251,-6.0222,-6.047,-6.047,-6.047,-6.047,-6.047,-6.047,-5.9886,-6.0002,-5.9997,-6.0125,-6.0142,-6.0228,-6.0257,-6.0293,-6.032,-6.042,-6.0476,-6.0481,-6.0504,-6.0568,-6.0626,-6.0626,-6.0651,-6.0696,-6.0688,-6.0497,-6.047,-6.0444,-6.0416,-6.0702,-6.0702,-6.0886,-6.0888,-6.0889]}]]